Location: Munkebjergskolens Observatorium
(55.3864°N, 10.3987°E)
Time: 04:49:42
(UTC+02:00)

KKS-1 - Pass Details

Date: 07 April 2023
Orbit: 633 x 644 km, 98.2° (Epoch: 31 May)

Event Time Altitude Azimuth Distance (km) Brightness Sun altitude
Rises 23:23:01 0° 20° (NNE) 2,946 ? -23.0°
Reaches altitude 10° 23:25:24 10° 30° (NNE) 2,032 ? -23.2°
Enters shadow 23:28:25 30° 67° (ENE) 1,139 ? -23.4°
